Flag for Brazil Weather past 2 weeks in Curitiba, Paraná, Brazil

Now
64 °F

Mostly cloudy.


Feels Like: 64 °F
Forecast: N/A
Wind: 15 mph from Southeast

Location: Curitiba Aeroporto

Current Time: Dec 22, 2014 at 6:45:21 PM

Latest Report: Dec 22, 2014 at 6:00 PM


Visibility: N/A

Pressure: 29.98 "Hg

Humidity: 94%

Dew point: 63 °F

Location of CuritibaLocation

Historic Weather in Curitiba — Graph

°F

Curitiba temperature yesterday

Maximum temperature yesterday: 81 °F (at 1:00 PM)
Minimum temperature yesterday: 70 °F (at 10:00 PM)
Average temperature yesterday: 74 °F

Past Weeks' High & Low Weather Summary

 TemperatureHumidityPressure
High84 °F (Dec 7, 5:00 PM)100% (Dec 22, 9:00 AM)30.18 "Hg (Dec 22, 9:00 AM)
Low46 °F (Dec 22, 9:00 AM)28% (Dec 8, 1:00 PM)29.80 "Hg (Dec 13, 5:00 PM)
Average69 °F78%29.99 "Hg
* Reported Dec 7 5:00 PM — Dec 22 5:00 PM, Curitiba, Weather by CustomWeather, © 2014

Note: Actual official high and low records may vary slightly from our data, if they occured in-between our weather recording intervals... More about our weather records

Advertising

Curitiba weather history for previous 24 hours

 ConditionsComfort  
Time TempWeatherWind HumidityBarometerVisibility
5:00 PM
Dec 22
66 °FLight rain. Fog.16 mph88%29.98 "Hg1 mi
4:00 PM66 °FLight rain. Fog.14 mph94%29.98 "Hg1 mi
3:00 PM66 °FRain. More clouds than sun.9 mph94%29.98 "Hg1 mi
2:00 PM64 °FRain. Fog.6 mph94%29.98 "Hg2 mi
1:00 PM64 °FRain. Fog.5 mph94%N/A2 mi
12:00 PM64 °FRain. Fog.3 mph94%N/A2 mi
11:00 AM64 °FRain. Fog.8 mph94%N/A1 mi
10:00 AM64 °FRain. Fog.3 mph94%29.98 "Hg3 mi
9:00 AM46 °FThunderstorms. Broken clouds.7 mph100%29.92 "Hg5 mi
8:00 AM64 °FRain. Fog.15 mph94%29.95 "Hg2 mi
7:00 AM70 °FLight rain. Broken clouds.8 mph88%N/A6 mi
6:00 AM72 °FPassing clouds.12 mph83%29.86 "HgN/A
5:00 AM72 °FPassing clouds.9 mph78%29.86 "HgN/A
4:00 AM72 °FPassing clouds.12 mph83%29.86 "HgN/A
3:00 AM72 °FPassing clouds.9 mph83%29.86 "HgN/A
2:00 AM72 °FPassing clouds.8 mph83%29.86 "HgN/A
1:00 AM72 °FPassing clouds.10 mph83%29.92 "HgN/A
12:00 AM72 °FPassing clouds.9 mph83%29.89 "HgN/A
11:00 PM
Dec 21
70 °FPassing clouds.3 mph88%29.92 "HgN/A
10:00 PM70 °FPassing clouds.8 mph88%29.86 "HgN/A
9:00 PM72 °FPassing clouds.2 mph83%29.83 "HgN/A
8:00 PM73 °FPartly sunny.8 mph78%29.83 "HgN/A
7:00 PM73 °FPartly sunny.8 mph83%29.83 "HgN/A
6:00 PM72 °FThunderstorms. Broken clouds.14 mphN/AN/A4 mi
Weather by CustomWeather, © 2014

See weather overviewHow to use our weather pages